Content
SEND FEEDBACK

Daily
Averages
Monthly
Summary
Vietnam

DUONG SON, VIETNAM


Home > Asia > Vietnam
Elevation: 23 feet     Latitude: 16 01N     Longitude: 108 10E

WEATHER
 
SELECT A DAY
Number of Records: 239,282;   Date Range: 8/18/97 - 7/29/14
 
SHARE

PRINT THIS DATA

[ ← Previous Day ]
WEATHER ALMANAC - JANUARY 31, 2013
[ Next Day → ]
[ °C ]   °F
Weather ElementAverageHighLow
Temperature74.7 °F78.8 °F (12:00 pm)71.6 °F (12:30 am)
Dewpoint68 °F71 °F (4:00 am)66.2 °F (12:00 pm)
Humidity79.1 %94 % (5:30 am)62 % (1:00 pm)
Barometer30.08 in30.15 in (9:30 am)30.03 in (4:00 am)
Wind Speed3.7 mph8.1 mph (12:00 pm)
Weather ElementAverage
Visibility4.8 mi
Wind DirectionE (95.6 °)

Weather ElementTotal
Precipitation---
Cooling Degree Days10.2 (Base 65)
Growing Degree Days25.2 (Base 50)
Averaged from 55 records on January 31, 2013
WEATHER CONDITIONS BREAKOUT
WIND DIRECTION BREAKOUT
WEATHER BY HOUR - JANUARY 31, 2013
[ °C ]   °F
Local TimeTemperatureDewpointHumidityBarometerVisibilityWind DirectionWind SpeedGust SpeedPrecipitationEventsConditions
12:30 AM71.6 °F68.0 °F88 %30.06 in4.3 miSW (220°)3.5 mphScattered Clouds
1:00 AM73.0 °F70.0 °F87 %30.04 in6.0 miSSW (200°)2.2 mphMostly Cloudy
1:00 AM71.6 °F68.0 °F88 %30.06 in4.3 miSW (220°)4.6 mphScattered Clouds
1:30 AM71.6 °F68.0 °F88 %30.04 in3.7 miSSW (200°)3.5 mphScattered Clouds
2:00 AM71.6 °F68.0 °F88 %30.04 in3.7 miVariable2.3 mphScattered Clouds
2:30 AM71.6 °F68.0 °F88 %30.04 in3.7 miVariable2.3 mphScattered Clouds
3:00 AM71.6 °F68.0 °F88 %30.04 in3.7 miCalmScattered Clouds
3:30 AM71.6 °F68.0 °F88 %30.04 in3.7 miVariable2.3 mphScattered Clouds
4:00 AM73.0 °F71.0 °F90 %30.03 in6.0 miCalmOvercast
4:00 AM71.6 °F68.0 °F88 %30.04 in3.7 miCalmScattered Clouds
4:30 AM71.6 °F68.0 °F88 %30.04 in3.7 miVariable1.2 mphScattered Clouds
5:00 AM71.6 °F68.0 °F88 %30.06 in3.1 miVariable1.2 mphMostly Cloudy
5:30 AM71.6 °F69.8 °F94 %30.06 in3.1 miNorth (10°)3.5 mphMostly Cloudy
6:00 AM73.4 °F68.0 °F83 %30.06 in3.1 miVariable1.2 mphMostly Cloudy
6:30 AM71.6 °F68.0 °F88 %30.09 in3.1 miWSW (240°)3.5 mphMostly Cloudy
7:00 AM73.0 °F71.0 °F89 %30.07 in6.0 miSE (140°)2.2 mphMostly Cloudy
7:00 AM71.6 °F69.8 °F94 %30.09 inNorthMostly Cloudy
7:30 AM71.6 °F69.8 °F94 %30.09 in3.1 miVariable2.3 mphMostly Cloudy
8:00 AM73.4 °F69.8 °F88 %30.09 in3.7 miVariable2.3 mphMostly Cloudy
8:30 AM73.4 °F69.8 °F88 %30.12 in3.7 miVariable2.3 mphMostly Cloudy
9:00 AM75.2 °F68.0 °F78 %30.12 in3.7 miVariable1.2 mphMostly Cloudy
9:30 AM75.2 °F68.0 °F78 %30.15 in3.7 miCalmMostly Cloudy
10:00 AM76.0 °F70.0 °F76 %30.12 in6.0 miESE (110°)2.2 mphRainLight Rain
10:00 AM77.0 °F69.8 °F78 %30.15 in3.7 miVariable1.2 mphMostly Cloudy
10:30 AM75.2 °F68.0 °F78 %30.12 in3.7 miSE (140°)3.5 mphMostly Cloudy
11:00 AM77.0 °F68.0 °F74 %30.12 in4.3 miESE (120°)6.9 mphMostly Cloudy
11:30 AM77.0 °F68.0 °F74 %30.09 in4.3 miSE (130°)6.9 mphMostly Cloudy
12:00 PM78.8 °F66.2 °F65 %30.09 in4.3 miSE (130°)8.1 mphMostly Cloudy
12:30 PM78.8 °F66.2 °F65 %30.09 in5.0 miSE (140°)8.1 mphMostly Cloudy
1:00 PM78.0 °F67.0 °F62 %30.06 in6.0 miEast (90°)6.7 mphPartly Cloudy
1:00 PM77.0 °F66.2 °F69 %30.09 in5.0 miSE (130°)8.1 mphMostly Cloudy
1:30 PM77.0 °F66.2 °F69 %30.06 in6.2 miESE (110°)5.8 mphMostly Cloudy
2:00 PM78.8 °F66.2 °F65 %30.06 in6.2 miSE (130°)6.9 mphMostly Cloudy
2:30 PM78.8 °F66.2 °F65 %30.06 in6.2 miSE (130°)5.8 mphScattered Clouds
3:00 PM77.0 °F66.2 °F69 %30.06 in6.2 miSE (140°)6.9 mphScattered Clouds
3:30 PM77.0 °F66.2 °F69 %30.04 in6.2 miSE (130°)6.9 mphScattered Clouds
4:00 PM77.0 °F67.0 °F65 %30.04 in6.0 miSE (140°)2.2 mphMostly Cloudy
4:00 PM77.0 °F66.2 °F69 %30.06 in6.2 miESE (120°)8.1 mphScattered Clouds
4:30 PM77.0 °F66.2 °F69 %30.06 in6.2 miESE (120°)6.9 mphScattered Clouds
5:00 PM77.0 °F66.2 °F69 %30.06 in6.2 miSE (130°)4.6 mphScattered Clouds
5:30 PM75.2 °F66.2 °F73 %30.06 in6.2 miSSE (150°)5.8 mphMostly Cloudy
6:00 PM75.2 °F68.0 °F78 %30.06 in6.2 miSSE (150°)5.8 mphMostly Cloudy
6:30 PM75.2 °F68.0 °F78 %30.09 in5.0 miSE (130°)4.6 mphMostly Cloudy
7:00 PM76.0 °F69.0 °F73 %30.07 in6.0 miSE (140°)2.2 mphMostly Cloudy
7:00 PM75.2 °F68.0 °F78 %30.09 in5.0 miSSE (160°)3.5 mphMostly Cloudy
7:30 PM75.2 °F68.0 °F78 %30.09 in5.0 miSSE (160°)3.5 mphMostly Cloudy
8:00 PM75.2 °F66.2 °F73 %30.09 in5.0 miSE (130°)4.6 mphMostly Cloudy
8:30 PM75.2 °F68.0 °F78 %30.12 in5.0 miSE (130°)4.6 mphMostly Cloudy
9:00 PM75.2 °F68.0 °F78 %30.12 in5.0 miESE (120°)3.5 mphMostly Cloudy
9:30 PM75.2 °F68.0 °F78 %30.12 in5.0 miVariable2.3 mphMostly Cloudy
10:00 PM75.0 °F69.0 °F78 %30.10 in6.0 miESE (110°)2.2 mphOvercast
10:00 PM75.2 °F68.0 °F78 %30.12 in5.0 miVariable1.2 mphMostly Cloudy
10:30 PM75.2 °F68.0 °F78 %30.09 in5.0 miSSE (160°)3.5 mphMostly Cloudy
11:00 PM73.4 °F68.0 °F83 %30.09 in5.0 miWSW (250°)3.5 mphMostly Cloudy
11:30 PM71.6 °F68.0 °F88 %30.09 in5.0 miVariable2.3 mphMostly Cloudy
Hourly data recorded from VVDN, located miles away from Duong Son, Vietnam







STORIES FROM OUR PARTNERS